Temperature
9 8 8 8 8 7 7 7 7 7 6 6 6 6 5 5 5 5 4 4 4 4 3 3 3 3 2 2 2 2 1 1 1 1 1 2 2 2 2 2 2 2 2
8 8 8 7 7 7 7 6 6 6 6 6 5 5 5 4 4 4 4 4 3 3 3 3 3 2 2 2 2 1 1 1 1 1 1 1 1 1 1 2 2 2 2
7 7 7 7 7 6 6 6 6 6 5 5 5 5 4 4 4 3 3 3 3 3 2 2 2 2 2 2 1 1 1 1 0 0 1 1 1 1 1 2 2 2 2
7 7 6 6 6 6 6 5 5 5 5 5 4 4 4 3 3 3 3 2 2 2 2 2 2 1 1 1 1 1 1 1 0 0 0 0 0 1 1 1 1 1 2
6 6 6 6 5 5 5 5 5 4 4 4 4 3 3 3 3 2 2 2 2 2 2 1 1 1 1 1 0 0 0 0 0 -0 -0 -0 0 0 0 0 0 1 1
5 5 5 5 4 4 4 4 4 4 4 3 3 3 3 2 2 2 2 2 1 1 1 1 1 1 1 1 0 0 -0 -0 -0 -1 -0 -1 -0 -0 -0 -0 -0 -0 0
5 5 4 4 4 4 4 4 3 3 3 3 3 3 2 2 2 2 1 1 1 1 1 1 1 1 0 0 0 0 0 -0 -1 -1 -1 -1 -1 -1 -1 -0 -0 -0 -0
4 4 3 3 3 3 3 3 3 3 2 2 2 2 2 2 1 1 1 1 1 1 1 0 0 0 0 0 0 0 0 -0 -0 -1 -1 -1 -1 -1 -1 -1 -1 -0 0
3 3 3 3 3 3 3 2 2 2 2 2 1 1 1 1 1 1 0 0 1 1 0 0 0 -0 -0 -0 -0 -0 -0 -0 -0 -0 -1 -1 -0 -1 -1 -0 -0 -0 -0
2 2 2 2 2 2 2 2 1 1 1 1 1 1 1 0 0 0 -0 -0 0 0 0 0 -0 -0 -0 -1 -1 -1 -1 -1 -1 -0 -0 -0 -0 -0 -0 -1 -1 -1 -1
1 1 1 1 1 1 1 1 1 0 0 0 0 0 -0 -0 -0 -0 -1 -1 -1 -1 -1 -1 -1 -1 -1 -1 -1 -1 -1 -1 -1 -1 -1 -1 -0 -0 -0 -1 -1 -1 -1
1 1 1 1 1 0 0 0 -0 -0 -0 -0 -1 -1 -1 -1 -1 -1 -1 -1 -1 -1 -1 -1 -1 -1 -1 -1 -1 -1 -1 -1 -1 -1 -1 -1 -1 -1 -1 -1 -1 -1 -1
0 0 0 0 0 -0 -0 -0 -1 -1 -1 -1 -2 -2 -1 -1 -1 -1 -1 -1 -1 -1 -1 -1 -2 -1 -1 -1 -1 -2 -2 -2 -2 -2 -2 -2 -1 -1 -1 -1 -1 -1 -1
-0 -0 -0 -0 -0 -1 -1 -1 -1 -1 -2 -2 -2 -2 -2 -2 -2 -2 -2 -2 -2 -2 -2 -2 -2 -2 -2 -2 -2 -2 -2 -2 -2 -2 -2 -2 -2 -2 -2 -2 -1 -1 -1
-1 -1 -1 -1 -1 -1 -1 -2 -2 -2 -3 -3 -3 -3 -3 -3 -3 -3 -2 -2 -2 -2 -2 -2 -2 -2 -2 -2 -2 -2 -2 -2 -3 -3 -2 -2 -2 -2 -2 -2 -2 -2 -2
-2 -2 -2 -2 -2 -2 -2 -2 -2 -3 -3 -3 -3 -3 -3 -3 -3 -3 -3 -3 -3 -3 -3 -3 -3 -3 -3 -3 -3 -3 -3 -3 -3 -3 -3 -3 -3 -2 -2 -2 -2 -2 -2
-3 -3 -3 -3 -3 -3 -3 -3 -3 -3 -3 -3 -3 -3 -3 -3 -3 -3 -3 -3 -3 -3 -3 -3 -3 -3 -3 -3 -4 -3 -3 -3 -3 -3 -3 -3 -3 -3 -3 -3 -3 -2 -2
-4 -4 -4 -4 -4 -4 -4 -4 -4 -4 -4 -3 -3 -4 -4 -4 -4 -4 -4 -4 -4 -3 -4 -4 -4 -4 -4 -4 -4 -4 -4 -4 -3 -3 -3 -3 -3 -3 -3 -3 -3 -3 -3
-4 -4 -4 -4 -4 -5 -5 -5 -5 -5 -5 -5 -4 -4 -4 -4 -4 -4 -4 -4 -4 -4 -4 -4 -4 -4 -4 -4 -4 -4 -4 -4 -4 -4 -4 -4 -4 -3 -3 -3 -3 -3 -3
-5 -5 -5 -5 -5 -5 -5 -5 -5 -5 -5 -5 -5 -5 -5 -5 -4 -4 -4 -4 -4 -4 -4 -4 -4 -4 -4 -4 -4 -4 -4 -4 -4 -4 -4 -4 -4 -4 -4 -3 -3 -3 -3
-6 -6 -6 -6 -6 -6 -6 -6 -6 -6 -6 -6 -6 -6 -6 -6 -5 -5 -5 -5 -5 -5 -5 -5 -5 -4 -4 -4 -4 -4 -4 -4 -4 -4 -4 -4 -4 -3 -3 -3 -3 -3 -3
-7 -7 -7 -7 -7 -7 -7 -7 -7 -7 -7 -7 -6 -6 -6 -6 -6 -5 -5 -5 -5 -5 -5 -5 -5 -5 -5 -4 -4 -4 -4 -4 -4 -4 -4 -4 -3 -4 -3 -3 -3 -3 -3
-7 -7 -7 -7 -7 -7 -7 -7 -7 -7 -7 -7 -7 -7 -6 -6 -6 -6 -6 -6 -5 -5 -5 -5 -5 -5 -4 -4 -4 -4 -4 -4 -4 -4 -4 -3 -3 -4 -4 -3 -3 -3 -3
-8 -8 -8 -8 -8 -8 -8 -8 -8 -8 -8 -7 -7 -7 -7 -7 -6 -6 -6 -6 -6 -6 -5 -5 -5 -5 -5 -4 -4 -4 -4 -4 -4 -4 -4 -4 -3 -3 -3 -3 -3 -3 -3
-8 -8 -8 -9 -8 -8 -8 -8 -8 -8 -8 -8 -8 -7 -7 -7 -7 -7 -7 -6 -6 -6 -5 -5 -5 -5 -5 -4 -4 -4 -4 -4 -4 -4 -4 -4 -3 -3 -3 -3 -3 -3 -3
-9 -9 -9 -9 -9 -9 -8 -8 -8 -8 -8 -8 -8 -8 -7 -7 -7 -7 -7 -6 -6 -6 -6 -5 -5 -5 -5 -5 -4 -4 -4 -4 -4 -4 -3 -3 -3 -3 -3 -3 -3 -3 -3
Wind_Speed
6 5 5 4 3 4 3 3 2 2 1 1 1 1 1 1 1 1 2 3 3 4 4 4 5 5 4 4 4 4 5 6 9 10 7 8 8 10 12 13 14 13 14
6 5 5 4 4 3 2 2 2 2 2 2 1 1 2 2 2 2 3 4 4 4 5 5 6 5 6 5 5 6 6 6 7 11 10 8 9 10 10 11 11 12 12
5 5 5 4 3 2 2 2 2 2 2 1 1 2 2 3 3 3 4 4 5 5 5 5 6 6 6 6 6 6 6 7 6 8 10 8 7 8 9 10 10 9 11
5 5 4 3 3 2 2 2 1 2 2 2 2 2 3 3 3 4 4 4 5 5 5 5 6 6 7 7 7 7 6 7 7 8 8 8 7 7 7 8 10 8 9
4 4 3 2 2 1 1 1 1 1 1 1 1 2 2 3 3 4 4 4 5 5 5 5 6 8 9 8 7 7 7 6 7 8 8 8 8 8 8 7 9 9 8
4 3 2 2 2 1 1 0 0 0 1 1 1 2 3 3 6 7 6 4 4 5 6 6 7 7 10 12 13 12 10 8 8 7 8 9 10 9 8 8 8 8 7
4 3 2 2 1 0 1 1 0 1 1 1 2 2 3 5 7 8 8 4 4 5 5 6 6 7 10 7 10 12 10 11 11 9 9 10 10 9 9 9 8 8 8
3 3 2 2 1 1 1 0 1 1 1 2 3 3 4 5 8 8 8 4 4 5 5 6 6 7 8 9 7 7 7 8 9 8 8 9 9 8 8 7 7 7 7
3 2 1 1 1 1 1 1 1 1 2 2 3 3 4 6 8 9 8 3 4 6 6 6 6 7 12 12 7 7 8 8 10 12 12 12 13 13 10 5 5 6 7
1 1 1 1 1 1 0 1 1 1 2 2 3 3 4 5 8 9 8 3 4 5 5 6 9 9 12 11 6 6 8 8 8 9 9 10 9 9 10 6 5 5 5
2 2 2 1 1 1 1 1 1 2 2 2 3 4 4 5 7 9 8 4 4 5 5 5 6 12 12 11 9 6 8 9 6 6 7 7 6 5 5 5 4 3 4
3 2 2 2 1 1 1 1 1 1 2 2 3 4 4 5 6 8 9 8 7 5 5 5 7 12 12 11 8 9 10 9 4 5 6 6 6 6 5 6 6 4 3
3 3 2 2 1 1 1 1 1 1 1 3 3 4 5 4 6 9 10 10 9 5 5 8 10 11 10 7 8 9 7 4 4 5 6 6 5 5 5 4 5 4 4
3 3 2 2 2 2 1 1 1 2 2 3 3 4 5 5 5 5 5 5 7 6 5 7 9 9 7 7 7 6 4 3 4 4 5 5 5 4 4 3 3 4 4
2 2 2 2 2 2 2 2 2 2 3 3 3 4 4 5 7 10 7 5 4 5 5 4 3 4 5 5 4 4 4 4 4 4 4 5 5 5 4 4 3 3 3
2 2 2 2 2 2 2 3 4 5 6 7 7 6 6 8 11 11 10 9 8 8 5 4 4 4 5 5 5 5 4 4 4 4 4 4 4 4 4 3 3 3 3
2 2 2 2 2 2 2 2 4 6 7 7 8 8 8 10 10 9 9 8 8 7 4 3 4 4 5 5 5 4 5 5 4 4 4 4 4 4 4 3 3 3 3
3 3 3 2 2 2 3 3 3 4 5 5 6 9 10 9 9 8 8 7 5 5 3 4 4 5 5 5 5 4 5 4 4 4 4 4 4 3 3 3 3 2 3
3 2 2 2 3 3 3 3 3 4 4 5 5 6 8 9 8 7 6 3 4 4 4 4 4 5 5 5 5 4 4 4 4 4 3 3 3 3 3 3 2 3 2
3 5 5 3 3 3 3 3 3 3 4 4 4 4 5 5 4 4 4 4 4 4 5 5 5 5 5 5 5 4 4 4 4 3 3 3 3 3 3 2 2 1 2
3 4 6 4 3 3 3 3 3 3 3 4 4 5 6 4 4 4 4 4 4 5 5 5 5 5 5 4 4 4 5 4 4 3 3 3 2 2 2 1 1 1 1
3 3 3 3 3 3 3 3 3 3 4 4 4 5 7 4 4 4 5 5 5 5 5 5 5 5 5 4 4 4 4 4 4 3 3 2 2 2 2 1 1 1 2
3 3 3 3 3 4 4 3 3 3 4 4 4 4 4 4 4 4 5 5 5 5 5 5 5 5 5 5 5 4 4 4 3 3 2 2 1 1 1 1 2 2 2
3 3 3 3 3 3 3 3 3 3 4 4 4 4 4 4 4 5 5 5 5 5 6 5 5 6 7 6 5 5 5 4 3 2 2 1 1 1 1 1 2 2 2
2 3 3 3 3 3 3 3 3 3 4 4 4 4 4 4 5 5 5 5 5 5 6 6 6 6 7 7 6 5 4 4 3 2 0 1 1 1 2 2 2 2 2
3 3 3 3 3 3 3 3 4 4 4 4 4 4 4 4 4 5 5 5 5 5 6 6 7 7 7 6 6 5 5 4 2 1 2 2 2 2 2 2 3 3 3
Wind_Direction
148 147 140 142 137 137 148 163 169 169 171 194 217 240 264 283 302 296 290 289 290 296 295 291 290 288 288 289 285 281 276 270 281 294 293 299 297 300 309 310 310 309 308
146 139 135 132 128 133 148 166 166 182 198 206 212 235 260 273 274 272 282 286 284 289 291 293 294 298 294 293 290 286 283 276 278 293 302 305 302 301 303 306 315 316 312
134 131 126 128 135 150 164 167 173 190 209 219 214 237 259 267 270 269 268 273 277 277 280 285 292 297 297 296 293 290 289 291 283 289 299 303 304 306 312 313 312 311 317
131 132 135 146 157 166 171 178 189 194 211 227 243 251 259 268 268 270 274 276 279 281 281 281 286 287 288 292 294 291 295 299 297 295 300 305 305 305 310 317 319 321 319
123 126 136 136 132 132 153 184 195 209 239 243 258 276 280 272 266 278 281 282 285 290 289 287 287 293 298 299 301 300 299 297 301 302 302 307 310 317 317 312 313 316 312
111 111 107 105 105 121 140 116 80 310 288 284 274 278 286 289 294 298 300 280 283 285 291 293 293 293 301 304 305 305 304 300 299 298 300 304 305 307 308 310 312 318 312
91 88 88 102 110 122 96 70 356 294 313 300 287 284 285 291 305 303 302 297 280 281 286 293 300 302 307 298 300 306 307 306 302 296 295 295 300 304 306 306 307 307 298
76 75 76 85 80 54 61 19 310 303 286 280 285 285 289 299 310 309 309 300 282 280 281 282 286 294 299 304 303 307 304 303 302 298 287 289 294 299 296 293 294 299 295
62 59 58 82 76 53 23 335 310 301 297 290 287 287 289 300 311 314 318 298 287 284 282 287 291 290 301 312 314 308 310 311 313 310 306 307 311 317 321 319 318 317 310
24 12 37 64 81 58 349 314 318 307 296 302 301 291 288 295 309 316 320 303 298 298 295 290 296 302 307 313 310 306 307 310 316 320 322 322 321 321 325 318 302 304 305
0 17 35 37 56 74 37 352 343 331 325 313 306 304 297 302 312 315 319 315 302 304 305 303 300 308 310 311 312 303 302 312 315 317 317 319 326 329 329 325 315 296 292
22 26 36 36 31 38 43 3 353 346 337 321 317 318 313 309 316 314 317 317 316 301 299 302 306 312 311 313 314 315 318 324 323 322 321 324 328 328 325 324 324 319 303
33 35 35 34 32 23 24 354 346 342 327 319 320 316 317 316 315 321 321 320 318 309 299 308 316 318 318 316 317 321 325 326 324 321 318 315 314 314 319 324 333 335 345
36 22 14 24 11 1 348 338 327 316 309 305 308 308 312 313 313 315 315 316 318 317 314 315 319 321 322 320 319 320 319 313 315 307 307 309 316 324 328 331 337 346 355
29 10 357 355 340 337 334 313 303 275 285 295 290 292 301 303 309 320 322 316 316 316 322 322 328 331 334 331 328 324 324 325 324 319 316 319 324 330 331 337 341 349 358
12 358 342 332 324 321 321 324 324 319 315 313 309 303 296 300 311 319 322 325 327 328 330 326 327 325 322 324 325 325 325 322 320 318 317 318 321 326 332 335 341 355 1
348 330 323 323 314 313 315 321 323 329 327 322 321 320 319 319 319 322 325 329 330 334 328 317 314 314 315 316 316 316 318 317 316 314 316 318 321 323 329 334 342 355 4
340 326 328 315 306 297 296 299 299 306 316 319 322 323 326 327 326 328 333 337 332 334 321 309 306 307 307 306 307 309 312 315 317 317 318 321 323 322 328 331 341 360 360
331 321 315 306 304 300 301 304 302 299 300 307 316 323 329 331 332 336 340 336 318 314 313 309 305 305 306 305 305 306 306 307 309 312 317 320 321 324 327 331 342 1 6
322 324 325 319 312 311 310 305 303 300 302 307 313 318 327 331 331 332 332 324 317 312 309 306 306 304 305 305 305 305 304 305 308 310 315 319 319 320 323 328 343 1 7
315 315 321 320 315 309 306 299 295 297 302 305 307 313 323 320 317 318 319 319 316 311 308 307 305 303 302 302 302 299 297 299 302 305 309 313 318 323 326 337 351 9 26
299 302 308 307 308 308 306 301 299 300 302 306 311 315 322 322 317 315 314 313 311 307 305 301 301 299 296 294 292 292 292 295 298 302 308 315 323 333 350 14 38 56 68
297 300 304 303 302 302 306 305 303 303 305 308 310 314 318 318 317 316 315 315 314 313 314 310 304 304 304 297 291 284 281 283 285 287 299 310 327 343 10 45 81 80 64
288 288 289 293 296 294 297 301 304 305 307 307 308 309 310 311 313 315 316 315 314 316 319 318 313 309 310 312 307 299 291 287 288 286 275 291 349 14 49 69 80 74 68
283 284 284 285 285 290 295 298 300 304 305 304 306 308 310 312 314 315 316 318 319 320 322 322 322 320 317 317 319 318 315 311 308 305 319 94 73 66 78 84 89 79 72
285 283 283 283 283 286 289 292 296 300 299 300 304 306 308 310 312 314 318 322 323 322 323 326 326 325 324 325 325 330 331 332 340 29 72 93 91 85 86 92 92 89 88
Height
1481 1485 1488 1490 1493 1495 1497 1498 1499 1500 1500 1500 1500 1499 1498 1497 1497 1495 1494 1493 1492 1490 1489 1487 1484 1482 1480 1478 1475 1473 1470 1466 1460 1453 1451 1448 1444 1440 1436 1433 1429 1424 1420
1479 1482 1485 1487 1490 1492 1493 1495 1496 1496 1497 1496 1496 1495 1494 1494 1493 1492 1490 1489 1488 1486 1484 1482 1480 1478 1476 1473 1471 1468 1465 1462 1457 1450 1446 1443 1440 1436 1432 1428 1424 1420 1416
1476 1479 1482 1484 1486 1488 1490 1491 1492 1493 1493 1493 1492 1491 1491 1490 1489 1488 1487 1485 1484 1482 1480 1478 1476 1474 1471 1469 1466 1463 1460 1457 1453 1448 1442 1439 1435 1432 1428 1424 1420 1416 1412
1474 1477 1479 1481 1483 1485 1486 1488 1488 1489 1489 1489 1488 1488 1487 1486 1485 1484 1483 1482 1480 1479 1477 1475 1472 1470 1467 1464 1462 1459 1456 1453 1449 1445 1440 1435 1432 1428 1424 1419 1414 1411 1407
1472 1474 1476 1478 1480 1482 1483 1484 1485 1485 1485 1485 1484 1484 1483 1482 1481 1480 1479 1478 1476 1475 1473 1471 1469 1466 1464 1461 1458 1455 1452 1448 1445 1441 1437 1432 1428 1424 1420 1416 1412 1407 1403
1470 1472 1474 1476 1477 1479 1480 1480 1481 1481 1481 1481 1481 1480 1479 1478 1478 1477 1475 1474 1472 1470 1468 1466 1464 1462 1460 1457 1454 1451 1449 1445 1442 1438 1434 1430 1425 1422 1418 1414 1410 1405 1399
1468 1470 1472 1473 1474 1476 1477 1477 1477 1477 1477 1477 1477 1476 1475 1475 1474 1473 1471 1470 1468 1466 1464 1462 1460 1457 1455 1452 1450 1447 1444 1442 1439 1436 1431 1427 1423 1419 1415 1411 1408 1404 1400
1466 1468 1469 1471 1472 1473 1473 1474 1474 1474 1474 1473 1473 1472 1472 1471 1470 1469 1468 1466 1464 1463 1461 1458 1456 1453 1451 1448 1445 1442 1440 1437 1435 1432 1428 1424 1420 1417 1413 1410 1406 1402 1398
1465 1466 1467 1468 1469 1470 1470 1470 1470 1470 1470 1470 1469 1469 1468 1467 1466 1465 1464 1462 1460 1458 1457 1455 1452 1449 1447 1444 1441 1438 1435 1433 1430 1427 1424 1421 1417 1414 1411 1407 1403 1399 1395
1463 1464 1465 1466 1467 1467 1467 1467 1467 1467 1467 1466 1466 1465 1465 1463 1462 1461 1460 1458 1456 1454 1452 1450 1448 1446 1443 1441 1438 1435 1431 1428 1426 1422 1420 1417 1414 1411 1408 1405 1401 1398 1394
1462 1463 1463 1464 1464 1465 1465 1465 1464 1464 1463 1463 1462 1462 1461 1460 1459 1457 1456 1454 1452 1450 1448 1446 1444 1442 1440 1437 1435 1432 1429 1426 1423 1419 1416 1413 1410 1407 1404 1402 1399 1397 1393
1460 1461 1461 1462 1462 1462 1462 1462 1462 1461 1460 1459 1459 1458 1458 1457 1455 1454 1452 1451 1449 1447 1444 1442 1440 1438 1436 1433 1431 1428 1426 1423 1420 1416 1413 1410 1407 1404 1402 1400 1397 1395 1392
1459 1459 1460 1460 1460 1460 1460 1459 1459 1458 1457 1457 1456 1455 1454 1453 1452 1451 1449 1447 1445 1443 1441 1439 1437 1434 1432 1430 1427 1425 1422 1419 1417 1414 1411 1408 1405 1403 1400 1398 1396 1394 1391
1458 1458 1458 1458 1458 1458 1457 1457 1456 1455 1455 1454 1453 1452 1451 1450 1449 1447 1445 1443 1441 1439 1437 1435 1433 1431 1429 1426 1424 1422 1419 1417 1414 1412 1409 1406 1404 1401 1399 1397 1394 1392 1390
1456 1456 1456 1455 1455 1455 1455 1454 1453 1453 1453 1452 1450 1449 1448 1446 1445 1444 1443 1440 1438 1436 1434 1431 1429 1427 1425 1423 1421 1419 1416 1414 1412 1410 1407 1405 1402 1400 1398 1396 1394 1392 1390
1453 1454 1453 1453 1453 1452 1452 1452 1451 1451 1450 1449 1448 1447 1445 1444 1442 1441 1439 1437 1435 1433 1431 1428 1426 1424 1422 1420 1418 1416 1414 1412 1410 1408 1405 1403 1401 1399 1397 1396 1394 1392 1390
1451 1451 1451 1450 1450 1449 1449 1448 1447 1447 1446 1445 1444 1443 1442 1440 1439 1437 1436 1434 1432 1430 1428 1425 1424 1422 1420 1418 1416 1414 1412 1410 1408 1406 1404 1402 1400 1398 1397 1395 1394 1392 1390
1449 1449 1448 1448 1447 1447 1446 1445 1444 1443 1442 1441 1440 1439 1438 1436 1435 1433 1432 1430 1428 1426 1425 1423 1421 1420 1418 1416 1414 1411 1409 1408 1406 1404 1402 1401 1399 1397 1396 1395 1394 1392 1391
1447 1446 1446 1445 1444 1444 1443 1442 1441 1440 1439 1437 1436 1435 1434 1433 1432 1430 1429 1427 1425 1423 1422 1420 1419 1417 1415 1413 1411 1409 1407 1406 1404 1402 1401 1400 1398 1397 1396 1395 1394 1392 1392
1445 1444 1443 1442 1441 1441 1440 1439 1438 1437 1436 1434 1433 1432 1431 1429 1428 1427 1426 1424 1423 1421 1419 1418 1416 1414 1413 1411 1409 1407 1405 1404 1402 1401 1400 1399 1398 1397 1395 1394 1394 1393 1392
1442 1441 1440 1439 1438 1438 1437 1436 1435 1434 1433 1431 1430 1430 1429 1427 1425 1424 1423 1421 1420 1418 1417 1415 1413 1412 1410 1409 1407 1405 1404 1402 1401 1400 1399 1398 1397 1396 1395 1395 1394 1393 1392
1439 1438 1437 1436 1435 1435 1434 1433 1432 1431 1430 1429 1427 1427 1426 1424 1423 1422 1420 1419 1418 1416 1415 1413 1411 1409 1408 1406 1405 1403 1402 1401 1400 1399 1398 1397 1397 1396 1395 1395 1394 1394 1393
1436 1435 1434 1433 1433 1432 1431 1430 1429 1428 1427 1426 1425 1424 1423 1422 1421 1419 1418 1416 1415 1413 1412 1410 1408 1407 1406 1404 1403 1402 1400 1399 1399 1398 1397 1397 1396 1396 1396 1395 1395 1395 1394
1433 1432 1431 1431 1430 1429 1429 1428 1427 1426 1425 1424 1423 1422 1421 1419 1418 1417 1416 1414 1413 1411 1409 1408 1406 1405 1404 1403 1401 1400 1399 1398 1398 1397 1397 1396 1396 1396 1396 1396 1396 1396 1396
1430 1429 1428 1428 1427 1427 1426 1425 1424 1424 1423 1422 1421 1420 1419 1417 1416 1415 1414 1412 1411 1409 1408 1406 1405 1403 1402 1401 1400 1399 1398 1397 1397 1397 1396 1396 1396 1397 1397 1397 1397 1397 1398
1427 1426 1426 1425 1425 1424 1423 1423 1422 1421 1421 1420 1419 1418 1417 1416 1414 1413 1412 1411 1409 1408 1406 1405 1404 1402 1401 1400 1399 1398 1397 1397 1396 1396 1396 1397 1397 1397 1398 1398 1398 1399 1399